FW4650 Weather Reports


time (UTC)temp
F
wind
direction
speed
knots
gust
knots
rain 1hr
in
rain 24hr
in
rain mn
in
humidity
%
barometer
mb
20260503021515 55 0.0 0.0 0.00 0.00 0.00
20260503020515 54 82 6.1 9.6 0.00 0.00 0.00
20260503015515 54 81 8.7 12.2 0.00 0.00 0.00
20260503014515 55 78 7.8 11.3 0.00 0.00 0.00
20260503013515 54 66 2.6 7.0 0.00 0.00 0.00
20260503012515 54 66 5.2 8.7 0.00 0.00 0.00
20260503011535 54 0.0 0.0 0.00 0.00 0.00
20260503010515 53 76 0.0 0.9 0.00 0.00 0.00
20260503005515 53 90 3.5 6.1 0.00 0.00 0.00
20260503004515 53 77 10.4 12.2 0.00 0.00 0.00
20260503003535 53 65 4.3 6.1 0.00 0.00 0.00
20260503002515 54 105 0.9 6.1 0.00 0.00 0.00
20260503001515 55 172 2.6 6.1 0.00 0.00 0.00
20260503000515 55 197 0.0 3.5 0.00 0.00 0.00
20260502235515 55 197 6.1 9.6 0.00 0.00 0.00
20260502234515 54 0.0 0.0 0.00 0.00 0.00
20260502233515 55 231 0.9 6.1 0.00 0.00 0.00
20260502232515 55 103 0.9 4.3 0.00 0.00 0.00
20260502231535 55 0.0 0.0 0.00 0.00 0.00
20260502230515 55 0.0 0.0 0.00 0.00 0.00
20260502225515 55 130 5.2 9.6 0.00 0.00 0.00
20260502224535 55 43 0.9 6.1 0.00 0.00 0.00
20260502223515 55 50 0.9 5.2 0.00 0.00 0.00
20260502222535 55 57 0.9 6.1 0.00 0.00 0.00
20260502221515 55 49 3.5 6.1 0.00 0.00 0.00
20260502220535 55 25 1.7 6.1 0.00 0.00 0.00
20260502215515 56 25 0.0 2.6 0.00 0.00 0.00
20260502214516 56 0.0 0.0 0.00 0.00 0.00
20260502213515 56 0.0 0.0 0.00 0.00 0.00
20260502212515 56 0.0 0.0 0.00 0.00 0.00
20260502211515 56 0.0 0.0 0.00 0.00 0.00
20260502210515 56 0.0 0.0 0.00 0.00 0.00
20260502205515 56 0.0 0.0 0.00 0.00 0.00
20260502204515 56 0.0 0.0 0.00 0.00 0.00
20260502203535 56 0.0 0.0 0.00 0.00 0.00
20260502202515 57 0.0 0.0 0.00 0.00 0.00
20260502201515 57 0.0 0.0 0.00 0.00 0.00
20260502200515 58 0.0 0.0 0.00 0.00 0.00
20260502195515 58 0.0 0.0 0.00 0.00 0.00
20260502194515 58 0.0 0.0 0.00 0.00 0.00
20260502193515 59 0.0 0.0 0.00 0.00 0.00
20260502192535 59 0.0 0.0 0.00 0.00 0.00
20260502191515 59 0.0 0.0 0.00 0.00 0.00
20260502190515 59 0.0 0.0 0.00 0.00 0.00
20260502185535 60 307 1.7 6.1 0.00 0.00 0.00
20260502184515 60 299 3.5 7.0 0.00 0.00 0.00
20260502183515 61 299 4.3 7.8 0.00 0.00 0.00
20260502182535 62 300 4.3 8.7 0.00 0.00 0.00
20260502181515 62 303 4.3 7.8 0.00 0.00 0.00
20260502180515 63 298 4.3 7.8 0.00 0.00 0.00
20260502170515 65 268 5.2 8.7 0.00 0.00 0.00
20260502163515 65 266 7.0 10.4 0.00 0.00 0.00
20260502162515 66 266 6.1 10.4 0.00 0.00 0.00
20260502161515 66 264 4.3 7.0 0.00 0.00 0.00
20260502160515 66 265 7.8 10.4 0.00 0.00 0.00
20260502151515 68 268 7.8 12.2 0.00 0.00 0.00
20260502150515 68 255 8.7 12.2 0.00 0.00 0.00
20260502130515 69 223 10.4 15.6 0.00 0.00 0.00
20260502123515 68 226 8.7 15.6 0.00 0.00 0.00
20260502122515 68 227 9.6 13.9 0.00 0.00 0.00
20260502121515 70 225 8.7 13.0 0.00 0.00 0.00
20260502120515 69 229 11.3 14.8 0.00 0.00 0.00
20260502115515 69 222 10.4 14.8 0.00 0.00 0.00
20260502114515 69 220 10.4 15.6 0.00 0.00 0.00
20260502113515 70 221 8.7 15.6 0.00 0.00 0.00
20260502112515 69 223 7.0 12.2 0.00 0.00 0.00
20260502111535 69 242 7.8 11.3 0.00 0.00 0.00
20260502110515 69 237 6.1 9.6 0.00 0.00 0.00
20260502105515 69 236 4.3 8.7 0.00 0.00 0.00
20260502104515 69 228 7.0 9.6 0.00 0.00 0.00
20260502103515 69 230 4.3 8.7 0.00 0.00 0.00
20260502102515 66 215 2.6 5.2 0.00 0.00 0.00
20260502101515 68 205 1.7 6.1 0.00 0.00 0.00
20260502100535 66 199 3.5 6.1 0.00 0.00 0.00
20260502091515 64 193 7.8 11.3 0.00 0.00 0.00
20260502090515 65 199 8.7 11.3 0.00 0.00 0.00
20260502071515 80 202 7.0 9.6 0.00 0.00 0.00
20260502070515 80 205 7.0 12.2 0.00 0.00 0.00
20260502065515 81 194 7.0 9.6 0.00 0.00 0.00
20260502064535 80 192 7.8 10.4 0.00 0.00 0.00
20260502063515 81 193 6.1 9.6 0.00 0.00 0.00
20260502062515 81 191 5.2 8.7 0.00 0.00 0.00
20260502061515 80 176 1.7 6.1 0.00 0.00 0.00
20260502060515 79 0.0 0.0 0.00 0.00 0.00
20260502055535 80 0.0 0.0 0.00 0.00 0.00
20260502054515 78 0.0 0.0 0.00 0.00 0.00
20260502053515 78 165 0.0 2.6 0.00 0.00 0.00
20260502052515 75 166 1.7 3.5 0.00 0.00 0.00
20260502051535 73 193 3.5 7.8 0.00 0.00 0.00
20260502050515 71 171 2.6 4.3 0.00 0.00 0.00
20260502045515 69 165 2.6 4.3 0.00 0.00 0.00
20260502044515 65 171 3.5 5.2 0.00 0.00 0.00
20260502043515 60 167 6.1 7.8 0.00 0.00 0.00
20260502042515 56 179 6.1 7.8 0.00 0.00 0.00
20260502041515 53 174 4.3 6.1 0.00 0.00 0.00
20260502040515 51 163 5.2 7.0 0.00 0.00 0.00
20260502035515 51 170 4.3 6.1 0.00 0.00 0.00
20260502034515 51 167 5.2 7.0 0.00 0.00 0.00
20260502033515 51 163 5.2 7.0 0.00 0.00 0.00
20260502032515 52 159 4.3 6.1 0.00 0.00 0.00
20260502031515 52 156 1.7 4.3 0.00 0.00 0.00
20260502030516 52 159 3.5 5.2 0.00 0.00 0.00
20260502025515 52 158 4.3 6.1 0.00 0.00 0.00
20260502024515 52 0.0 0.0 0.00 0.00 0.00
20260502023515 52 0.0 0.0 0.00 0.00 0.00
20260502022515 53 156 2.6 4.3 0.00 0.00 0.00